Kuchera_Ratio
10.0 8.0 9.3 11.1 8.0 13.2 14.3 12.9 16.5 8.6 10.2 3.9 3.7 3.9 3.7 2.3 2.0 3.3 2.2 1.3 1.8 2.3 2.8 7.0 7.6 8.6 9.1 9.4 8.2 8.9 10.4 10.6 11.8 10.7 10.3 10.4 10.4 10.1 9.3 8.0 6.8 6.8 7.5 7.0
13.7 9.3 11.1 11.2 9.3 12.8 13.2 12.9 13.4 11.6 11.1 4.1 3.2 0.1 2.9 1.9 2.4 2.8 3.4 4.0 2.1 3.5 5.3 9.0 10.0 12.2 12.1 12.3 12.2 11.0 12.4 12.9 12.1 12.3 12.1 11.9 11.3 11.2 10.4 9.4 8.2 7.9 9.1 8.8
14.9 13.1 13.3 13.0 4.0 8.0 8.5 8.4 8.7 12.7 4.8 4.0 4.0 2.5 2.6 2.3 2.1 4.4 5.1 3.3 2.9 5.9 9.3 11.6 12.7 13.4 14.6 14.0 13.1 13.7 13.6 13.5 13.1 12.7 12.8 12.3 11.6 11.7 11.4 10.7 9.5 10.0 9.8 9.7
15.9 14.8 16.7 2.9 3.8 3.5 8.5 4.6 7.2 9.2 6.0 5.4 5.8 3.9 3.3 1.9 2.7 5.5 3.0 3.2 4.4 9.6 12.1 12.6 13.6 14.3 14.7 14.2 14.6 14.4 14.3 14.1 13.2 12.8 12.7 11.9 11.8 12.2 12.1 10.8 10.4 10.6 9.8 9.1
17.1 17.0 11.9 6.0 6.8 6.1 9.8 8.2 3.4 6.2 6.1 6.0 1.1 3.2 1.2 0.0 0.0 1.9 3.8 4.3 6.5 10.8 12.4 13.6 14.8 15.3 16.0 15.4 14.9 15.0 14.7 14.3 13.5 13.0 13.3 13.2 13.5 13.5 12.8 12.1 11.7 10.8 9.1 8.2
16.2 18.2 18.6 4.6 5.0 5.4 8.5 12.3 3.1 2.1 6.4 5.2 4.5 12.1 6.2 0.0 1.0 3.9 5.0 8.2 11.0 12.6 13.6 15.4 15.3 15.6 16.5 16.3 16.0 16.0 15.0 14.3 13.7 13.7 13.8 14.3 13.8 13.5 12.6 11.9 11.1 10.0 9.7 8.1
17.3 18.2 15.8 3.3 4.5 6.9 15.2 11.2 0.0 0.0 0.6 3.1 11.8 6.1 2.6 1.9 3.3 3.9 8.0 10.3 12.7 14.1 15.2 16.0 15.7 16.5 17.3 16.7 17.1 15.2 14.4 14.1 14.1 14.1 14.3 13.8 13.4 13.0 12.6 12.5 11.6 11.8 9.9 7.4
16.6 17.8 17.2 0.3 6.0 11.0 2.8 0.0 0.4 1.8 3.7 5.3 5.8 4.7 3.7 5.3 7.1 9.0 11.1 12.5 13.2 15.0 15.9 16.0 16.2 17.5 18.4 18.0 15.7 14.7 14.8 14.8 14.9 14.7 13.8 12.7 13.2 12.9 12.3 12.4 12.6 12.1 11.9 11.0
9.6 10.1 0.0 0.0 0.0 0.0 0.0 2.0 3.4 4.9 5.9 6.5 7.1 7.5 7.2 8.8 10.2 12.0 12.8 13.5 14.2 15.7 16.9 16.8 17.0 17.2 19.1 17.1 15.7 15.5 15.5 15.7 15.5 14.7 13.8 13.0 13.2 13.2 13.1 12.5 12.6 12.0 12.3 11.6
7.2 3.1 0.0 0.0 0.0 0.0 0.0 1.4 0.0 0.5 2.4 4.8 10.1 8.5 9.7 10.0 10.7 12.5 13.8 14.1 14.9 16.3 17.4 17.6 17.1 16.8 17.4 16.7 15.4 15.7 16.2 16.0 15.7 15.2 13.9 12.9 12.5 12.5 13.2 12.9 12.3 11.9 12.5 12.6
4.5 0.0 0.0 0.0 1.0 0.0 0.0 0.1 1.9 4.5 5.8 7.1 8.6 10.6 12.4 11.4 12.1 13.0 14.6 14.6 15.7 16.8 18.2 17.9 17.6 17.8 17.1 16.9 16.2 16.5 16.0 16.0 15.5 14.8 14.7 14.4 13.3 13.2 13.3 12.1 10.2 11.2 11.5 10.9
8.0 0.0 2.9 4.1 0.7 0.3 3.8 5.5 5.6 7.9 8.9 6.9 10.2 12.8 12.7 12.5 12.9 14.2 15.2 15.6 16.5 17.1 17.7 18.0 17.9 18.3 17.5 16.7 16.4 16.8 16.0 15.5 15.7 15.0 14.8 14.2 14.7 14.5 9.3 7.4 5.9 5.1 5.0 8.7
2.3 2.7 4.1 2.4 1.4 0.7 5.8 7.5 7.6 7.8 8.8 11.6 11.8 13.2 13.4 13.0 13.3 14.3 14.8 16.3 17.0 17.6 18.1 18.1 18.2 18.3 17.1 17.1 16.6 16.1 16.5 15.3 15.0 13.8 15.0 15.4 15.0 15.2 15.6 12.2 6.1 5.2 3.8 5.7
3.6 5.8 8.8 6.1 9.9 5.2 6.6 6.8 6.5 8.1 9.2 10.4 12.1 12.5 13.2 13.3 13.7 14.9 16.5 16.9 17.5 17.6 17.9 18.3 17.8 17.8 17.3 16.9 16.2 16.5 15.7 13.6 14.2 15.4 15.4 15.0 15.4 15.4 14.4 14.3 13.7 12.2 5.0 5.9
7.6 8.4 9.0 7.3 8.1 6.5 6.1 7.6 8.3 8.6 9.4 8.9 9.6 11.0 12.4 13.5 14.7 15.4 16.2 17.0 17.7 17.7 18.3 17.5 18.0 17.5 15.8 15.6 16.5 15.8 16.0 14.8 14.8 15.1 14.9 14.6 15.3 15.3 14.2 13.6 13.3 10.4 9.8 7.5
4.3 5.7 5.3 9.6 8.6 5.8 5.9 8.7 10.4 10.2 10.7 11.6 12.3 12.7 13.7 14.4 14.8 16.0 16.6 17.3 19.0 18.0 18.2 18.4 17.7 15.6 15.5 15.6 15.4 16.0 14.9 13.0 13.4 15.2 15.5 15.8 15.7 15.1 14.4 14.2 13.7 11.3 10.7 10.3
8.8 8.6 8.1 8.5 8.8 7.1 9.5 9.8 10.7 11.5 12.2 12.6 13.1 13.7 14.2 14.2 15.2 15.7 16.9 17.1 18.0 18.4 18.0 17.7 16.8 15.6 15.1 14.7 15.8 15.0 15.1 15.9 13.6 16.6 15.9 15.8 15.9 14.6 14.5 14.5 14.3 13.3 10.0 7.3
2.6 4.1 7.0 8.8 10.2 10.6 11.0 10.1 11.2 12.3 12.8 12.8 14.0 14.7 15.0 15.2 16.1 16.7 17.0 17.7 18.0 17.2 16.0 15.4 16.5 14.3 15.2 15.3 14.5 14.1 15.9 16.5 16.4 17.0 16.3 15.6 14.7 14.4 14.6 14.4 14.3 14.0 12.2 7.3
7.8 8.8 6.5 6.8 6.4 10.6 12.2 12.2 11.5 11.1 10.9 12.2 14.5 15.6 15.8 15.9 16.7 17.7 18.0 18.6 18.6 18.0 16.6 15.4 12.9 14.4 15.6 14.6 11.1 14.8 16.4 16.8 17.0 16.9 16.1 14.4 14.5 14.3 14.5 14.3 14.3 14.1 12.9 9.3
6.1 5.6 5.1 6.8 7.1 9.6 11.2 9.3 10.9 12.5 12.9 14.2 15.6 16.7 17.3 17.0 17.8 17.9 17.9 18.8 18.0 17.0 15.9 14.6 14.2 15.8 15.5 13.9 11.5 16.3 16.7 17.1 17.3 17.1 16.4 14.6 14.9 14.4 14.6 13.6 13.8 14.2 13.4 12.4
7.9 8.8 9.7 10.4 10.2 9.8 10.6 11.0 12.7 13.6 13.0 14.5 16.5 16.3 17.5 17.6 16.8 16.5 17.4 18.1 15.7 16.1 14.2 13.4 15.3 15.9 14.1 12.6 15.9 16.9 17.2 17.5 17.3 17.0 15.7 15.3 15.0 14.4 13.6 13.6 13.8 14.0 13.7 13.2
5.7 7.3 8.4 7.7 9.6 9.4 8.6 9.2 10.3 10.5 12.7 15.2 15.1 16.2 17.1 17.4 16.7 15.9 15.2 16.6 15.2 13.2 13.8 15.8 16.6 13.8 12.2 13.3 17.3 17.5 17.7 17.6 17.0 16.2 15.5 15.0 15.1 14.5 13.8 13.4 13.2 13.4 13.6 13.3
8.0 9.5 11.0 11.5 12.1 12.6 12.1 12.3 12.2 12.6 13.4 13.9 15.1 16.0 16.7 16.7 16.5 17.4 17.9 14.8 14.9 14.7 14.7 16.4 13.6 11.4 11.3 17.7 18.1 18.2 18.1 18.0 17.3 15.9 15.7 15.0 14.8 14.1 13.6 13.4 12.9 12.4 12.9 13.0
12.8 12.9 13.1 12.8 13.3 14.0 14.6 13.8 13.7 13.6 13.6 13.5 14.9 15.4 16.1 17.0 16.6 15.7 15.7 14.2 13.9 14.1 15.0 15.4 13.9 12.6 13.7 18.4 18.9 18.7 18.6 18.4 17.3 15.5 15.5 14.1 14.7 13.8 13.3 13.1 13.1 12.2 12.2 11.8
14.3 14.9 15.0 15.3 15.6 15.4 14.7 14.1 14.4 14.4 14.5 15.3 15.6 15.4 15.5 15.5 16.5 16.0 16.8 16.3 15.2 15.3 17.0 15.7 14.4 14.2 18.3 19.1 19.5 19.4 19.0 18.8 16.5 15.8 15.8 15.9 15.2 14.2 13.3 13.0 12.9 12.4 12.4 12.1
16.8 16.7 16.3 15.8 15.7 15.2 14.6 14.7 15.3 14.9 15.2 15.7 15.8 15.7 15.7 15.6 15.9 15.9 17.1 16.0 17.0 16.1 18.0 17.9 17.5 17.2 18.8 19.8 19.9 19.3 19.0 18.7 17.7 16.6 15.7 15.7 15.1 14.3 13.2 12.9 12.8 12.6 12.5 12.3
17.8 15.4 17.4 16.7 16.0 15.6 15.5 15.2 15.4 15.7 15.0 15.6 16.0 15.6 15.9 16.0 16.3 17.0 16.3 17.7 17.8 17.9 18.2 18.3 18.8 18.0 18.0 18.7 19.8 19.2 18.9 18.5 16.3 16.1 16.6 16.2 15.2 14.0 13.1 12.8 12.6 12.4 12.3 12.1